Location: Newark
(48.4472°N, 1.4892°E)
Time: 13:04:32
(UTC+00:00)

Transit 4A - Pass Details

Date: 20 January 2021
Orbit: 866 x 978 km, 66.8° (Epoch: 01 March)

Event Time Altitude Azimuth Distance (km) Brightness Sun altitude
Rises 18:48:31 0° 178° (S) 3,656 11.1 -21.9°
Reaches altitude 10° 18:51:21 10° 168° (SSE) 2,719 10.3 -22.3°
Enters shadow 18:54:43 25° 141° (SE) 1,860 9.2 -22.9°
